FW3881 Weather Reports


time (UTC)temp
F
wind
direction
speed
knots
gust
knots
rain 1hr
in
rain 24hr
in
rain mn
in
humidity
%
barometer
mb
20260507140335 53 61 0.0 3.5 0.00 0.05 0.00 60 1013.4
20260507140010 51 125 0.9 3.5 0.00 0.06 0.00 61 1013.5
20260507135855 51 160 0.9 2.6 0.00 0.05 0.00 60 1013.5
20260507134744 51 56 0.9 3.5 0.00 0.06 0.00 58 1013.5
20260507134244 52 85 0.9 2.6 0.00 0.06 0.00 58 1013.6
20260507133717 52 267 0.9 7.8 0.00 0.07 0.00 60 1013.6
20260507133202 52 28 0.9 7.8 0.00 0.07 0.00 59 1013.7
20260507132703 51 297 0.9 2.6 0.00 0.07 0.00 60 1013.6
20260507132140 50 82 0.9 2.6 0.00 0.08 0.00 64 1013.6
20260507131643 50 95 0.9 2.6 0.00 0.09 0.00 65 1013.7
20260507131122 50 95 0.0 2.6 0.00 0.09 0.00 64 1013.7
20260507130846 50 319 0.0 1.7 0.00 0.10 0.00 65 1013.6
20260507130110 49 279 0.0 0.9 0.00 0.10 0.00 64 1013.6
20260507125607 49 5 0.0 2.6 0.00 0.11 0.00 69 1013.7
20260507125046 49 298 0.0 1.7 0.00 0.12 0.00 66 1013.7
20260507124740 48 313 0.0 2.6 0.00 0.12 0.00 70 1013.6
20260507123955 48 53 0.0 2.6 0.00 0.13 0.00 70 1013.6
20260507123455 47 93 0.0 2.6 0.00 0.13 0.00 68 1013.5
20260507122937 47 10 0.0 2.6 0.00 0.13 0.00 69 1013.5
20260507122418 47 52 0.0 2.6 0.00 0.14 0.00 70 1013.5
20260507122137 47 260 0.0 2.6 0.00 0.14 0.00 69 1013.5
20260507121349 47 48 0.0 1.7 0.00 0.15 0.00 73 1013.4
20260507121324 47 20 0.0 1.7 0.00 0.16 0.00 70 1013.3
20260507120613 47 79 0.0 0.0 0.00 0.16 0.00 72 1013.3
20260507115823 47 38 0.0 0.0 0.00 0.17 0.00 71 1013.4
20260507115324 47 38 0.0 0.0 0.00 0.18 0.00 72 1013.4
20260507115026 46 175 0.0 0.0 0.00 0.18 0.00 71 1013.4
20260507114528 46 205 0.0 0.0 0.00 0.20 0.00 73 1013.4
20260507114032 46 204 0.0 0.0 0.00 0.21 0.00 74 1013.4
20260507113237 46 204 0.0 0.0 0.00 0.21 0.00 73 1013.5
20260507112717 46 204 0.0 0.0 0.00 0.22 0.00 75 1013.4
20260507112150 46 205 0.0 0.0 0.00 0.23 0.00 75 1013.4
20260507111630 46 204 0.0 0.0 0.00 0.24 0.00 74 1013.5
20260507111129 46 209 0.0 0.0 0.00 0.24 0.00 72 1013.4
20260507110608 46 233 0.0 0.0 0.00 0.25 0.00 73 1013.3
20260507110041 46 233 0.0 0.0 0.00 0.25 0.00 72 1013.2
20260507105543 46 233 0.0 0.0 0.00 0.25 0.00 74 1013.2
20260507105240 46 233 0.0 1.7 0.00 0.25 0.00 75 1013.1
20260507104453 46 233 0.0 1.7 0.00 0.25 0.00 76 1013.0
20260507103924 46 233 0.0 1.7 0.00 0.25 0.00 75 1012.8
20260507103401 46 233 0.0 1.7 0.00 0.25 0.00 74 1012.9
20260507102830 46 231 0.0 2.6 0.00 0.25 0.00 75 1012.9
20260507102310 46 235 0.0 2.6 0.00 0.25 0.00 74 1012.9
20260507101806 46 254 0.0 2.6 0.00 0.25 0.00 76 1012.8
20260507101304 46 36 0.0 2.6 0.00 0.25 0.00 75 1012.7
20260507100737 46 271 0.0 0.0 0.00 0.25 0.00 77 1012.7
20260507100209 46 271 0.0 1.7 0.00 0.25 0.00 78 1012.4
20260507095707 46 85 0.0 0.0 0.00 0.25 0.00 78 1012.4
20260507095141 46 62 0.0 0.0 0.00 0.25 0.00 79 1012.4
20260507094635 46 70 0.0 0.0 0.00 0.25 0.00 81 1012.2
20260507094350 46 32 0.0 2.6 0.00 0.25 0.00 81 1012.3
20260507093626 46 32 0.0 2.6 0.00 0.25 0.00 81 1012.3
20260507093345 46 79 0.0 0.9 0.00 0.25 0.00 81 1012.3
20260507092618 46 79 0.0 0.9 0.00 0.25 0.00 81 1012.3
20260507092117 46 73 0.0 1.7 0.00 0.25 0.00 80 1012.3
20260507091547 46 73 0.0 1.7 0.00 0.25 0.00 81 1012.3
20260507091023 46 73 0.0 1.7 0.00 0.25 0.00 81 1012.3
20260507090517 47 71 0.0 1.7 0.00 0.25 0.00 81 1012.4
20260507090015 47 71 0.0 1.7 0.00 0.25 0.00 82 1012.4
20260507085739 47 71 0.0 2.6 0.00 0.25 0.00 83 1012.3
20260507084945 47 71 0.9 2.6 0.00 0.25 0.00 82 1012.3
20260507084446 47 26 0.9 2.6 0.00 0.25 0.00 85 1012.3
20260507083924 47 27 0.9 2.6 0.00 0.25 0.00 86 1012.2
20260507083616 47 25 0.0 1.7 0.00 0.25 0.00 87 1012.3
20260507082830 47 28 0.0 1.7 0.00 0.25 0.00 86 1012.3
20260507082301 47 29 0.0 1.7 0.00 0.25 0.00 86 1012.1
20260507082020 47 223 0.9 1.7 0.00 0.25 0.00 86 1012.1
20260507081255 48 223 0.9 1.7 0.00 0.25 0.00 85 1012.1
20260507080725 48 82 0.9 2.6 0.00 0.25 0.00 84 1012.0
20260507080223 48 82 0.9 2.6 0.00 0.25 0.00 84 1011.8
20260507075659 48 79 0.9 2.6 0.00 0.25 0.00 85 1011.6
20260507075127 48 285 0.9 3.5 0.00 0.25 0.00 84 1011.6
20260507074627 48 249 0.9 3.5 0.00 0.25 0.00 84 1011.7
20260507074057 48 33 0.9 3.5 0.00 0.25 0.00 85 1011.6
20260507073553 48 78 0.9 3.5 0.00 0.25 0.00 85 1011.6
20260507073054 47 56 0.9 3.5 0.00 0.25 0.00 85 1011.4
20260507072527 48 123 0.9 2.6 0.00 0.25 0.00 87 1011.5
20260507072001 48 15 0.9 1.7 0.00 0.25 0.00 87 1011.7
20260507071456 48 30 0.9 3.5 0.00 0.25 0.00 87 1012.0
20260507071214 48 42 0.9 3.5 0.00 0.25 0.00 86 1012.0
20260507070707 48 1 0.9 2.6 0.00 0.25 0.00 86 1012.2
20260507070211 48 357 0.9 2.6 0.00 0.25 0.00 86 1012.1
20260507065420 48 318 0.9 5.2 0.00 0.25 0.00 86 1012.2
20260507064916 48 317 0.9 5.2 0.00 0.25 0.00 86 1012.3
20260507064413 48 108 0.9 3.5 0.00 0.25 0.00 86 1012.2
20260507063910 48 65 0.9 2.6 0.00 0.25 0.00 86 1012.3
20260507063345 48 61 0.9 2.6 0.00 0.25 0.00 85 1012.2
20260507062839 48 97 0.9 5.2 0.00 0.25 0.00 87 1012.2
20260507062336 48 173 0.9 5.2 0.00 0.25 0.00 87 1012.1
20260507061834 49 25 0.9 2.6 0.00 0.25 0.00 88 1012.0
20260507061332 49 40 0.9 1.7 0.00 0.25 0.00 88 1012.1
20260507060804 49 40 0.9 2.6 0.00 0.25 0.00 88 1012.2
20260507060303 49 40 0.9 3.5 0.00 0.25 0.00 88 1012.1
20260507060013 49 315 0.9 3.5 0.00 0.25 0.00 88 1012.1
20260507055254 49 270 0.9 2.6 0.00 0.25 0.00 88 1012.1
20260507054726 49 38 0.9 3.5 0.00 0.25 0.00 88 1012.1
20260507054222 49 35 0.9 3.5 0.00 0.25 0.00 89 1012.0
20260507053721 49 65 0.9 2.6 0.00 0.25 0.00 88 1011.9
20260507053155 49 15 0.9 2.6 0.00 0.25 0.00 88 1012.2
20260507052626 49 15 0.9 2.6 0.00 0.25 0.00 88 1012.0
20260507052122 50 81 0.9 3.5 0.00 0.25 0.00 88 1012.0
20260507051616 49 81 0.9 3.5 0.00 0.25 0.00 88 1012.0
20260507051114 50 191 0.9 3.5 0.00 0.25 0.00 88 1012.0
20260507050807 49 106 0.9 3.5 0.00 0.25 0.00 87 1012.1
20260507050044 49 210 0.9 3.5 0.00 0.25 0.00 88 1012.0
20260507045516 49 155 0.9 2.6 0.00 0.25 0.00 89 1011.9
20260507045014 49 81 0.9 3.5 0.00 0.25 0.00 89 1012.0
20260507044446 49 65 0.9 3.5 0.00 0.25 0.00 90 1011.7
20260507043945 49 279 0.9 3.5 0.00 0.25 0.00 90 1011.7
20260507043423 49 84 0.9 3.5 0.00 0.25 0.00 90 1011.8
20260507042847 49 31 0.9 3.5 0.00 0.25 0.00 90 1011.8
20260507042609 50 15 0.9 2.6 0.00 0.25 0.00 91 1012.0
20260507041835 50 59 0.9 3.5 0.00 0.25 0.00 91 1012.2
20260507041330 50 160 0.9 4.3 0.00 0.25 0.00 91 1012.1
20260507040835 50 356 0.9 4.3 0.00 0.25 0.00 91 1012.1
20260507040327 50 319 0.9 2.6 0.00 0.25 0.00 91 1012.2
20260507035829 50 229 0.9 3.5 0.00 0.25 0.25 92 1011.9
20260507035328 50 107 0.9 3.5 0.00 0.25 0.25 92 1012.0
20260507034827 50 42 0.9 4.3 0.00 0.25 0.25 92 1011.9
20260507034325 50 41 0.9 4.3 0.00 0.25 0.25 92 1011.8
20260507033803 51 40 0.9 4.3 0.00 0.25 0.25 92 1012.1
20260507033240 51 298 0.9 4.3 0.00 0.25 0.25 92 1011.9
20260507033011 51 119 0.9 3.5 0.00 0.25 0.25 92 1012.1
20260507032225 51 5 0.9 3.5 0.00 0.25 0.25 92 1011.9
20260507031727 51 356 0.9 3.5 0.00 0.25 0.25 92 1012.0
20260507031223 51 281 1.7 5.2 0.00 0.25 0.25 92 1011.8
20260507030726 51 34 1.7 5.2 0.00 0.25 0.25 92 1012.0
20260507030202 51 151 0.9 5.2 0.00 0.25 0.25 92 1012.0
20260507025646 51 213 0.9 5.2 0.00 0.25 0.25 92 1012.0
20260507025143 51 73 0.9 5.2 0.00 0.25 0.25 93 1011.5
20260507024905 51 142 0.9 5.2 0.00 0.25 0.25 93 1011.4
20260507024133 51 313 1.7 5.2 0.00 0.25 0.25 93 1011.4
20260507023603 51 300 1.7 3.5 0.00 0.25 0.25 93 1011.2
20260507023042 52 334 0.9 3.5 0.00 0.25 0.25 94 1011.5
20260507022530 52 260 0.9 3.5 0.00 0.25 0.25 94 1011.5
20260507022029 52 128 0.9 3.5 0.00 0.25 0.25 94 1011.4
20260507021510 52 231 0.9 3.5 0.00 0.25 0.25 94 1011.4
20260507021011 52 183 1.7 6.1 0.00 0.25 0.25 94 1011.5
20260507020510 52 267 0.9 6.1 0.00 0.25 0.25 94 1011.4
20260507020005 52 309 0.9 2.6 0.00 0.25 0.25 94 1011.4
20260507015441 52 281 0.9 2.6 0.00 0.25 0.25 95 1011.5
20260507015201 52 322 0.9 1.7 0.00 0.25 0.25 95 1011.4
20260507014436 52 108 0.9 2.6 0.00 0.25 0.25 95 1011.4
20260507013913 52 314 1.7 3.5 0.00 0.25 0.25 95 1011.3
20260507013349 53 31 1.7 3.5 0.00 0.25 0.25 95 1011.4
20260507012822 53 329 1.7 3.5 0.00 0.25 0.25 95 1011.5
20260507012256 53 330 0.9 2.6 0.00 0.25 0.25 95 1011.3
20260507011741 53 249 0.9 2.6 0.00 0.25 0.25 95 1011.4
20260507011232 53 278 0.9 2.6 0.00 0.25 0.25 95 1011.6
20260507010730 53 278 0.9 3.5 0.00 0.25 0.25 95 1011.5
20260507010230 54 21 0.9 3.5 0.00 0.25 0.25 95 1011.6
20260507005730 54 193 0.9 2.6 0.00 0.25 0.25 95 1011.8
20260507005228 54 322 0.9 1.7 0.00 0.25 0.25 95 1011.9
20260507004730 55 344 0.9 1.7 0.00 0.25 0.25 96 1011.8
20260507004224 55 348 0.0 1.7 0.00 0.25 0.25 96 1011.5
20260507003722 55 223 0.0 2.6 0.00 0.25 0.25 95 1011.5
20260507003219 55 223 0.9 3.5 0.00 0.25 0.25 96 1011.4
20260507002718 55 223 0.9 3.5 0.00 0.25 0.25 96 1011.6
20260507002219 55 269 0.9 1.7 0.00 0.25 0.25 96 1011.5
20260507001714 56 269 0.9 3.5 0.00 0.25 0.25 96 1011.5
20260507001210 56 19 0.9 3.5 0.00 0.25 0.25 96 1011.3
20260507000710 56 25 0.9 1.7 0.00 0.25 0.25 96 1011.4
20260507000143 56 20 0.9 1.7 0.00 0.25 0.25 95 1011.2
20260506235618 57 19 0.9 2.6 0.00 0.25 0.25 96 1011.1
20260506235050 57 278 0.9 2.6 0.00 0.25 0.25 96 1010.9
20260506234549 58 23 0.9 2.6 0.00 0.25 0.25 96 1011.0
20260506234318 58 235 0.9 2.6 0.00 0.25 0.25 96 1011.0
20260506233817 59 291 0.9 2.6 0.00 0.25 0.25 96 1010.4
20260506233051 59 167 0.9 3.5 0.00 0.25 0.25 96 1010.2
20260506232554 59 167 0.9 3.5 0.00 0.25 0.25 96 1010.2
20260506232027 59 183 0.0 1.7 0.00 0.25 0.25 96 1010.3
20260506231501 59 185 0.9 1.7 0.00 0.25 0.25 96 1010.2
20260506230939 59 187 0.9 1.7 0.00 0.25 0.25 96 1010.1
20260506230430 59 187 0.9 2.6 0.00 0.25 0.25 96 1010.1
20260506225932 59 305 0.0 2.6 0.00 0.25 0.25 96 1010.2
20260506225401 60 255 0.0 2.6 0.00 0.25 0.25 96 1010.3
20260506224903 60 255 0.0 2.6 0.00 0.25 0.25 96 1010.2
20260506224342 60 215 0.0 1.7 0.00 0.25 0.25 96 1010.2
20260506223845 60 215 0.0 1.7 0.00 0.25 0.25 96 1010.1
20260506223340 60 216 0.0 1.7 0.00 0.25 0.25 96 1009.9
20260506222846 60 217 0.0 0.9 0.00 0.25 0.25 96 1010.0
20260506222318 60 217 0.0 0.9 0.00 0.25 0.25 96 1010.0
20260506221749 60 179 0.0 0.9 0.00 0.25 0.25 96 1010.1
20260506221244 60 179 0.0 0.9 0.00 0.25 0.25 96 1010.1
20260506220739 60 179 0.0 1.7 0.00 0.25 0.25 96 1010.0
20260506220217 60 179 0.0 1.7 0.00 0.25 0.25 96 1009.9
20260506215648 60 179 0.0 0.9 0.00 0.25 0.25 96 1009.9
20260506215638 60 179 0.0 3.5 0.00 0.25 0.25 96 1010.0
20260506214619 60 179 0.9 3.5 0.00 0.25 0.25 96 1009.9
20260506214117 60 149 0.9 2.6 0.00 0.25 0.25 96 1009.9
20260506213550 60 218 0.0 1.7 0.00 0.25 0.25 96 1009.8
20260506213021 60 227 0.0 1.7 0.00 0.25 0.25 96 1009.9
20260506212520 60 227 0.0 1.7 0.00 0.25 0.25 96 1009.8
20260506211951 60 227 0.0 0.9 0.00 0.25 0.25 96 1009.7
20260506211449 60 227 0.0 0.9 0.00 0.25 0.25 96 1009.6
20260506210944 60 229 0.0 1.7 0.00 0.25 0.25 96 1009.5
20260506210711 60 229 0.0 1.7 0.00 0.25 0.25 96 1009.4
20260506210403 60 247 0.0 1.7 0.00 0.25 0.25 96 1009.5
20260506205347 60 247 0.0 1.7 0.00 0.25 0.25 96 1009.4
20260506204823 60 247 0.9 2.6 0.00 0.25 0.25 96 1009.4
20260506204254 60 253 0.9 1.7 0.00 0.25 0.25 96 1009.4
20260506204014 60 237 0.0 1.7 0.00 0.25 0.25 96 1009.2
20260506203247 60 237 0.9 2.6 0.00 0.25 0.25 96 1009.3
20260506202742 60 233 0.0 2.6 0.00 0.25 0.25 96 1009.3
20260506202240 59 97 0.0 0.9 0.00 0.25 0.25 96 1009.4
20260506201732 59 97 0.0 0.9 0.00 0.25 0.25 96 1009.3
20260506201226 59 97 0.0 1.7 0.00 0.25 0.25 96 1009.4
20260506200955 59 97 0.0 1.7 0.00 0.25 0.25 96 1009.3
20260506200200 59 93 0.0 0.9 0.00 0.25 0.25 96 1009.3
20260506195703 59 93 0.0 1.7 0.01 0.25 0.25 96 1009.4
20260506195133 59 94 0.0 1.7 0.01 0.25 0.25 96 1009.4
20260506194604 59 93 0.0 3.5 0.01 0.25 0.25 96 1009.3
20260506194331 59 93 0.9 3.5 0.01 0.25 0.25 96 1009.3
20260506193535 59 227 0.9 2.6 0.01 0.25 0.25 96 1009.4
20260506193034 59 195 0.9 0.9 0.01 0.25 0.25 96 1009.4
20260506193005 59 195 0.9 1.7 0.01 0.25 0.25 96 1009.4
20260506192021 59 167 0.9 1.7 0.01 0.25 0.25 96 1009.5
20260506191458 59 142 0.9 1.7 0.01 0.25 0.25 96 1009.4
20260506190925 59 142 0.9 1.7 0.01 0.25 0.25 96 1009.5
20260506190404 59 140 0.0 1.7 0.01 0.25 0.25 96 1009.4
20260506185904 59 137 0.0 1.7 0.00 0.24 0.25 96 1009.5
20260506185402 59 137 0.9 3.5 0.00 0.24 0.24 96 1009.4
20260506184902 59 200 0.9 3.5 0.00 0.24 0.24 96 1009.5
20260506184359 58 203 0.9 3.5 0.00 0.24 0.24 96 1009.5
20260506183903 58 222 0.9 3.5 0.00 0.24 0.24 96 1009.5
20260506183342 58 296 0.9 3.5 0.00 0.24 0.24 96 1009.6
20260506183323 58 125 0.9 8.7 0.00 0.24 0.24 96 1009.5
20260506182600 58 123 1.7 8.7 0.00 0.24 0.24 96 1009.6
20260506181814 58 186 0.9 4.3 0.00 0.24 0.24 96 1009.5
20260506181315 59 233 0.9 4.3 0.00 0.24 0.24 96 1009.5
20260506180746 58 233 1.7 4.3 0.00 0.24 0.24 96 1009.5
20260506180509 58 160 0.9 3.5 0.00 0.24 0.24 96 1009.6
20260506175943 59 226 0.9 2.6 0.00 0.24 0.24 96 1009.5
20260506175214 59 203 0.9 2.6 0.00 0.24 0.24 96 1009.6
20260506174651 58 201 0.9 2.6 0.00 0.24 0.24 96 1009.6
20260506174149 58 222 0.9 3.5 0.00 0.24 0.24 96 1009.6
20260506173650 58 220 0.9 3.5 0.00 0.24 0.24 96 1009.6
20260506173151 58 227 0.9 6.1 0.00 0.24 0.24 96 1009.6
20260506172843 58 228 0.9 6.1 0.00 0.24 0.24 96 1009.5
20260506172121 58 158 0.9 3.5 0.00 0.24 0.24 96 1009.5
20260506171550 58 245 0.9 6.1 0.00 0.24 0.24 96 1009.5
20260506171021 58 190 1.7 6.1 0.00 0.24 0.24 96 1009.6
20260506170518 58 248 1.7 6.1 0.00 0.24 0.24 96 1009.5
20260506170013 58 223 1.7 6.1 0.00 0.24 0.24 96 1009.6
20260506165447 58 235 1.7 7.0 0.00 0.24 0.24 96 1009.6
20260506164941 58 181 0.9 7.0 0.00 0.24 0.24 96 1009.6
20260506164642 58 257 0.9 3.5 0.00 0.24 0.24 96 1009.5
20260506163846 57 154 0.9 8.7 0.00 0.24 0.24 96 1009.5
20260506163343 57 86 1.7 8.7 0.00 0.24 0.24 96 1009.6
20260506162818 57 226 1.7 7.8 0.00 0.24 0.24 96 1009.6
20260506162252 57 179 1.7 7.8 0.00 0.24 0.24 96 1009.6
20260506161727 57 178 0.9 7.0 0.00 0.24 0.24 96 1009.6
20260506161200 57 239 1.7 4.3 0.00 0.24 0.24 96 1009.4
20260506160701 57 200 1.7 4.3 0.00 0.24 0.24 96 1009.3
20260506160132 57 187 1.7 6.1 0.00 0.24 0.24 96 1009.5
20260506155630 56 239 1.7 6.1 0.00 0.24 0.24 95 1009.5
20260506155331 56 38 1.7 4.3 0.01 0.24 0.24 95 1009.8
20260506154540 56 190 1.7 5.2 0.01 0.24 0.24 95 1009.7
20260506154016 56 179 1.7 5.2 0.01 0.24 0.24 95 1009.8
20260506153448 56 208 1.7 5.2 0.02 0.24 0.24 95 1009.6
20260506152947 56 160 1.7 5.2 0.02 0.24 0.24 95 1009.6
20260506152419 56 238 2.6 8.7 0.03 0.24 0.24 95 1009.5
20260506151920 56 190 1.7 8.7 0.03 0.24 0.24 95 1009.5
20260506151400 56 224 1.7 4.3 0.03 0.24 0.24 95 1009.5
20260506150903 56 249 1.7 5.2 0.04 0.24 0.24 95 1009.4
20260506150402 56 250 1.7 5.2 0.04 0.24 0.24 95 1009.7
20260506145857 56 264 1.7 4.3 0.04 0.24 0.24 95 1009.7
20260506145401 56 185 1.7 4.3 0.04 0.23 0.23 95 1009.6
20260506144831 56 225 1.7 7.0 0.04 0.23 0.23 94 1009.5
20260506144330 56 192 1.7 7.0 0.04 0.23 0.23 94 1009.7
20260506143833 56 179 1.7 7.0 0.04 0.23 0.23 94 1009.7
20260506143314 56 209 1.7 5.2 0.04 0.22 0.22 94 1010.1
20260506143305 56 232 1.7 5.2 0.03 0.21 0.22 94 1010.1
20260506142310 56 219 1.7 5.2 0.04 0.21 0.21 94 1010.2
20260506141808 56 350 0.9 4.3 0.04 0.21 0.21 94 1010.1
20260506141244 56 255 1.7 7.8 0.04 0.20 0.20 94 1010.2